Flag for Germany Weather past 2 weeks in Königs Wusterhausen, Brandenburg, Germany

41 °F


Feels Like: 35 °F
Forecast: 38 / 50 °F
Wind: 10 mph from Northeast

Location: Berlin-Schoenefeld

Current Time: Oct 10, 2015 at 1:59:25 AM

Latest Report: Oct 10, 2015 at 1:20 AM

Visibility: 10 mi

Pressure: 30.24 "Hg

Humidity: 66%

Dew point: 30 °F

Location of Königs WusterhausenLocation

Historic Weather in Königs Wusterhausen — Graph


Königs Wusterhausen temperature yesterday

Maximum temperature yesterday: 52 °F (at 1:50 PM)
Minimum temperature yesterday: 43 °F (at 7:20 AM)
Average temperature yesterday: 47 °F

Past Weeks' High & Low Weather Summary

High68 °F (Oct 3, 3:50 PM)100% (Sep 26, 3:50 AM)30.69 "Hg (Sep 26, 3:50 AM)
Low34 °F (Oct 2, 6:50 AM)30% (Oct 2, 3:50 PM)29.80 "Hg (Oct 6, 1:50 PM)
Average52 °F76%30.24 "Hg
* Reported Sep 25 12:20 AM — Oct 10 12:50 AM, Königs Wusterhausen, Weather by CustomWeather, © 2015

Note: Actual official high and low records may vary slightly from our data, if they occured in-between our weather recording intervals... More about our weather records


Königs Wusterhausen weather history for previous 24 hours

Time TempWeatherWind HumidityBarometerVisibility
12:50 AM
Sat, Oct 10
43 °FClear.9 mph61%30.24 "Hg10 mi
12:20 AM43 °FClear.8 mph61%30.24 "Hg10 mi
10:50 PM
Fri, Oct 9
46 °FClear.9 mph53%30.24 "Hg10 mi
10:20 PM46 °FClear.8 mph57%30.24 "Hg10 mi
9:50 PM46 °FClear.8 mph57%30.24 "Hg10 mi
9:20 PM46 °FClear.8 mph57%30.24 "Hg10 mi
8:50 PM48 °FClear.7 mph54%30.24 "Hg10 mi
8:20 PM48 °FClear.9 mph58%30.24 "Hg10 mi
7:50 PM48 °FClear.10 mph62%30.21 "Hg10 mi
7:20 PM48 °FSunny.7 mph66%30.21 "Hg10 mi
6:50 PM50 °FSunny.7 mph62%30.21 "Hg10 mi
6:20 PM50 °FSunny.6 mph62%30.21 "Hg10 mi
5:50 PM52 °FSunny.7 mph62%30.18 "Hg10 mi
5:20 PM52 °FSunny.8 mph58%30.18 "Hg10 mi
4:20 PM52 °FSunny.9 mph58%30.18 "Hg10 mi
3:50 PM52 °FSunny.8 mph62%30.18 "Hg10 mi
3:20 PM52 °FPartly sunny.8 mph62%30.18 "HgN/A
2:50 PM52 °FPartly sunny.9 mph62%30.18 "HgN/A
2:20 PM52 °FBroken clouds.9 mph62%30.18 "HgN/A
1:50 PM52 °FSunny.9 mph62%30.18 "Hg10 mi
1:20 PM48 °FPassing clouds.8 mph66%30.21 "HgN/A
12:50 PM48 °FSunny.8 mph71%30.21 "Hg10 mi
12:20 PM48 °FBroken clouds.8 mph71%30.18 "HgN/A
11:50 AM48 °FBroken clouds.7 mph71%30.21 "HgN/A
11:20 AM46 °FBroken clouds.7 mph76%30.21 "HgN/A
10:50 AM45 °FBroken clouds.7 mph76%30.21 "HgN/A
10:20 AM45 °FBroken clouds.9 mph76%30.21 "HgN/A
9:50 AM43 °FPartly sunny.8 mph87%30.18 "HgN/A
9:20 AM43 °FPartly sunny.7 mph87%30.18 "HgN/A
8:50 AM43 °FBroken clouds.7 mph87%30.18 "HgN/A
8:20 AM43 °FPartly sunny.7 mph87%30.18 "HgN/A
7:50 AM43 °FLight rain. Passing clouds.7 mph93%30.18 "HgN/A
7:20 AM43 °FPassing clouds.8 mph93%30.18 "HgN/A
6:50 AM45 °FPassing clouds.6 mph87%30.15 "HgN/A
6:20 AM45 °FLight rain. Passing clouds.8 mph93%30.15 "HgN/A
5:20 AM45 °FLight rain. Passing clouds.2 mph93%30.15 "HgN/A
4:50 AM45 °FLight rain. Passing clouds.6 mph93%30.15 "HgN/A
4:20 AM46 °FPassing clouds.6 mph87%30.15 "HgN/A
3:50 AM46 °FPassing clouds.5 mph93%30.15 "HgN/A
3:20 AM46 °FOvercast.3 mph93%30.15 "HgN/A
2:50 AM48 °FOvercast.3 mph94%30.15 "HgN/A
2:20 AM48 °FCool.3 mph94%30.15 "HgN/A
1:50 AM48 °FOvercast.2 mph94%30.15 "HgN/A
1:20 AM48 °FOvercast.2 mph94%30.15 "HgN/A
Weather by CustomWeather, © 2015

See weather overviewHow to use our weather pages